Theta_e
290 291 290 290 289 289 289 289 290 290 291 292 293 293 293 293 293 294 295 301 304 307 310 313 315 317 318 319 320 321 323 324 330 335 339 342 342 344 344 345 345 345 345
289 290 289 289 288 288 288 288 288 288 289 290 291 292 292 292 293 293 294 294 302 304 307 310 313 315 316 317 318 319 321 322 324 328 330 336 339 341 342 342 343 344 344
289 288 288 288 287 288 288 288 288 288 288 289 289 290 291 292 292 292 293 294 295 301 304 307 309 311 313 314 315 316 317 319 319 321 326 331 334 338 339 341 342 342 343
289 287 287 287 287 287 286 286 286 286 286 286 287 288 289 290 290 290 291 292 293 295 300 305 308 309 311 312 314 315 316 317 318 319 320 323 325 327 337 338 340 340 342
288 287 286 286 287 286 286 286 286 285 284 285 287 288 288 288 288 290 290 292 293 295 296 301 306 307 309 311 312 314 317 318 319 317 317 325 324 325 326 334 337 338 339
288 286 285 286 286 285 285 285 284 285 284 285 287 287 287 287 287 286 288 291 292 294 295 296 297 299 304 306 309 310 311 311 312 318 321 321 322 319 324 328 331 336 338
287 286 285 285 285 284 284 285 284 284 284 284 283 283 284 286 286 286 286 286 288 291 293 294 293 293 294 302 302 304 309 312 312 310 312 315 316 315 316 322 329 333 336
286 286 285 284 284 283 283 283 283 282 283 283 281 280 279 282 285 286 286 287 286 288 289 290 290 292 292 291 295 303 304 305 306 307 309 311 311 312 314 316 321 326 332
286 285 284 283 283 283 282 282 282 282 281 281 282 281 278 277 281 283 285 285 285 285 286 288 290 290 290 291 292 293 297 301 302 302 304 305 307 309 311 315 317 317 320
285 284 284 283 282 282 282 281 283 281 281 279 281 284 282 281 278 277 282 283 285 285 286 285 287 289 288 289 291 294 297 297 297 301 303 304 304 305 307 310 311 312 314
284 283 283 282 281 281 281 281 281 280 280 280 280 280 280 279 280 278 276 278 282 283 284 285 286 286 287 288 288 290 293 294 296 297 298 299 302 304 306 307 309 310 312
282 282 282 281 280 280 280 280 280 280 279 279 279 280 279 278 278 277 276 277 277 280 282 283 284 284 285 286 288 291 292 294 294 295 297 298 299 301 304 305 307 308 310
280 280 280 280 279 279 280 279 279 278 278 278 278 279 280 280 280 279 278 276 276 279 279 282 283 283 285 285 286 290 290 291 292 293 294 295 297 298 300 304 305 305 308
281 280 279 279 278 278 278 278 277 277 278 278 277 278 279 279 279 280 278 276 274 276 278 278 281 282 283 284 285 287 285 288 290 291 293 293 294 296 297 300 302 304 306
280 279 279 277 277 277 277 277 276 276 277 278 278 278 278 278 279 279 279 278 276 272 273 276 277 281 281 282 282 282 282 285 287 288 289 290 290 291 293 296 298 300 304
279 278 277 276 276 276 276 276 276 276 276 276 277 277 277 277 277 277 277 277 277 275 271 276 277 278 279 279 279 278 278 281 283 285 286 287 288 289 290 292 294 297 300
277 277 276 276 276 275 275 274 274 274 274 274 275 275 274 275 274 274 274 274 274 274 271 273 275 276 275 274 275 276 277 277 277 281 283 285 286 287 288 289 291 293 295
276 276 276 275 275 274 274 274 273 273 273 272 273 272 272 273 272 272 272 272 271 272 271 268 271 272 272 273 273 273 275 276 276 279 282 283 284 285 287 288 289 290 292
275 275 275 274 273 273 273 273 272 272 272 272 271 271 271 271 271 272 272 271 272 273 272 270 269 272 272 273 272 273 273 274 276 279 281 282 284 286 287 288 290 290 292
274 274 273 272 272 272 272 272 272 271 271 271 271 271 272 272 272 272 272 272 272 271 271 271 270 271 272 274 273 271 271 273 274 277 279 280 282 283 285 287 289 291 293
273 273 272 272 271 271 271 271 272 271 271 271 272 273 273 273 275 275 274 273 273 272 272 272 271 272 272 273 272 273 272 273 274 275 275 276 278 280 283 284 285 289 292
272 272 271 271 270 271 275 276 273 272 273 272 272 273 273 273 273 276 277 278 277 274 273 272 272 272 272 273 273 272 272 271 270 276 276 275 278 278 280 282 285 287 289
272 272 271 271 271 271 276 277 277 275 274 273 272 272 272 274 274 274 276 278 278 278 279 276 273 273 273 274 274 273 272 272 271 275 276 273 276 276 279 281 284 286 289
270 270 270 270 271 271 276 277 277 275 273 273 273 273 272 273 275 275 274 274 275 275 276 276 275 275 275 276 276 275 274 273 274 275 276 271 275 275 278 280 284 287 290
270 270 271 270 270 270 276 276 275 273 273 273 273 274 274 274 275 277 275 273 273 273 277 277 277 278 279 280 279 277 274 273 270 272 277 275 275 275 278 279 281 286 290
270 270 270 269 269 267 273 274 275 273 270 272 273 274 275 274 276 277 275 273 270 270 271 273 274 273 273 273 276 276 275 272 271 271 275 275 276 277 274 278 281 283 288
Wind_Speed
5 4 3 3 3 3 4 5 5 5 6 7 7 7 9 9 7 4 3 11 15 19 18 18 18 18 16 15 14 16 17 18 18 18 18 17 18 17 17 18 21 23 22
5 4 4 4 3 3 3 4 4 4 4 5 7 8 8 8 8 9 6 6 16 18 18 17 17 16 17 17 16 16 17 19 19 19 20 20 19 18 19 19 21 23 24
6 6 4 4 2 3 4 4 4 4 4 5 5 6 7 8 7 8 7 6 7 13 15 15 17 17 16 16 16 16 16 18 19 21 21 21 22 20 18 19 21 24 24
6 5 4 4 3 3 3 3 3 4 4 4 5 6 6 7 8 6 6 6 5 6 9 16 16 17 16 16 17 18 17 17 18 18 20 21 22 24 22 20 20 24 25
7 5 4 4 4 3 2 2 2 3 3 4 6 6 7 7 6 4 6 7 6 5 3 9 13 13 15 16 17 17 17 17 18 21 23 20 18 21 22 23 21 22 26
6 6 4 5 4 3 2 2 3 1 1 4 7 8 7 8 4 4 4 4 5 6 5 5 4 5 13 16 19 21 22 22 22 21 21 21 20 24 27 22 23 23 23
6 6 4 5 5 4 4 3 1 2 2 4 4 4 4 6 4 2 3 5 4 4 6 5 4 4 5 13 18 23 20 21 23 24 25 24 25 27 28 28 25 24 24
7 6 6 5 5 4 5 4 3 2 2 4 3 3 6 6 5 9 6 4 6 4 5 6 7 6 5 4 7 15 21 26 24 24 25 24 24 26 26 29 28 27 27
8 7 7 5 5 4 5 4 4 4 1 3 5 1 3 3 8 4 8 6 5 6 5 5 6 7 8 4 6 12 23 17 26 29 27 26 26 27 28 28 27 29 29
7 7 7 6 6 4 5 4 4 3 3 1 1 0 2 3 3 6 5 6 11 5 5 6 9 5 7 7 11 14 15 22 26 23 23 25 28 29 29 30 30 31 31
8 8 8 7 6 4 5 6 4 3 3 3 3 1 2 3 5 6 8 3 7 8 8 7 7 7 8 8 5 8 19 25 24 24 26 29 28 28 29 30 32 32 32
7 7 7 6 6 5 6 5 4 4 3 2 2 3 3 3 3 3 6 10 12 8 6 10 9 7 7 7 11 17 21 21 25 28 26 27 28 28 29 31 32 33 34
6 9 8 7 5 5 6 6 4 3 2 2 3 3 3 5 3 5 8 11 8 9 7 5 6 6 6 5 7 13 17 23 27 29 30 29 29 31 31 31 32 33 35
9 9 8 8 8 7 6 6 3 3 3 3 5 4 4 3 3 4 5 8 15 9 12 9 3 4 3 4 12 22 14 25 27 29 29 30 31 32 33 34 32 33 34
8 10 10 9 7 7 7 6 4 4 3 3 4 4 4 3 3 3 3 4 7 12 18 3 6 3 6 8 13 15 16 25 31 33 33 34 37 39 39 38 37 37 35
9 11 10 9 7 7 7 6 4 4 4 4 4 5 4 3 2 1 3 5 6 9 18 9 11 13 13 12 16 17 18 31 33 34 35 37 38 39 39 40 40 38 38
11 11 11 10 9 7 7 6 5 4 4 3 4 4 5 3 3 3 4 5 7 8 15 27 14 13 17 18 15 14 16 17 17 32 34 35 36 38 39 40 39 39 40
10 12 11 11 10 9 8 6 6 4 4 4 5 5 5 5 5 6 5 9 9 9 12 25 20 17 19 17 17 19 16 16 17 26 35 36 36 37 38 39 41 42 40
10 10 10 10 9 8 7 6 6 6 5 5 5 6 6 5 8 7 8 8 9 10 11 15 23 16 17 15 18 16 17 18 15 28 33 33 34 34 33 36 38 38 38
13 10 8 7 8 8 8 6 6 6 5 5 6 6 7 9 11 10 9 11 12 12 13 14 18 20 16 17 15 16 17 14 15 14 22 27 31 33 36 35 36 36 35
10 10 10 9 8 7 6 7 7 7 6 6 7 7 8 10 18 18 11 11 13 12 11 13 16 16 17 15 15 13 16 17 16 13 15 15 13 13 12 23 28 31 38
12 11 10 10 10 6 13 14 10 8 7 7 6 7 9 10 14 22 23 26 23 16 17 14 15 17 22 18 16 16 16 17 22 8 14 14 11 14 14 13 28 36 37
13 11 10 10 9 9 15 14 14 7 7 7 7 9 9 8 13 14 20 26 25 28 31 22 23 21 24 20 19 21 20 20 21 13 14 21 12 18 14 16 31 35 36
14 13 12 11 10 9 14 14 13 7 7 8 8 10 11 13 12 14 16 16 17 17 19 17 19 22 20 21 21 21 23 24 22 16 13 23 12 17 14 14 32 35 36
12 11 11 10 10 8 18 15 12 6 8 8 8 9 11 10 17 23 17 17 18 18 18 28 34 38 38 38 33 18 17 16 19 16 13 17 14 16 14 15 16 32 34
11 8 9 8 10 8 14 15 13 6 5 6 7 9 9 12 21 24 16 16 15 18 19 17 17 17 24 23 34 23 16 16 16 20 13 16 13 9 14 13 16 13 13
Wind_Direction
129 125 114 90 69 46 39 23 13 6 3 356 347 348 340 331 324 310 292 309 320 321 318 317 316 314 311 310 309 310 308 305 305 306 296 295 279 257 254 231 224 219 209
134 125 112 86 67 48 38 29 15 16 7 346 341 335 324 312 310 308 311 315 316 317 315 316 316 320 320 320 322 321 319 315 312 307 307 306 293 276 261 248 229 224 217
137 135 124 103 87 61 50 30 13 12 3 351 332 315 307 294 293 298 309 299 309 296 300 315 313 317 324 326 328 325 323 320 315 312 315 316 310 291 272 260 245 229 221
140 133 130 128 123 90 75 46 27 1 5 345 313 305 282 276 280 293 305 290 276 299 305 305 307 317 324 329 329 329 329 325 323 318 314 311 306 313 298 269 260 245 228
147 141 139 132 122 104 79 58 36 44 348 329 312 290 281 278 272 286 268 276 274 284 284 287 297 308 313 319 327 332 333 334 331 333 323 311 304 305 303 304 272 259 244
156 149 144 145 143 134 115 74 58 339 286 292 306 297 288 292 297 296 308 319 316 311 300 309 342 349 352 350 347 341 328 322 323 319 325 325 334 337 327 298 300 276 255
164 159 155 156 159 149 140 113 120 22 359 334 333 308 306 288 295 4 320 300 330 340 345 2 1 329 324 353 346 330 327 333 333 323 320 317 320 321 316 313 319 296 273
171 167 163 170 163 149 124 112 97 41 19 35 13 332 342 332 6 324 325 322 339 359 343 340 332 325 343 331 327 331 322 318 309 318 311 308 310 309 311 307 305 305 306
173 166 170 164 177 170 145 137 122 109 76 7 47 238 332 316 333 334 329 321 328 336 330 334 312 317 312 336 322 315 305 296 307 305 301 298 303 307 302 298 300 300 300
172 166 171 174 186 180 128 128 128 126 124 218 335 267 224 169 270 315 320 312 310 307 319 303 296 294 300 290 289 284 288 301 299 293 297 306 302 295 295 295 292 292 293
171 177 177 177 178 171 137 140 133 149 163 162 189 307 260 261 237 247 298 265 303 295 287 276 278 284 283 278 273 275 288 300 297 299 297 292 289 290 291 289 288 289 285
180 181 178 169 171 171 146 149 147 140 149 179 206 232 241 261 272 285 288 298 287 277 309 283 273 264 265 280 283 287 287 295 301 296 294 294 292 288 284 285 284 283 282
185 190 170 170 167 167 145 139 145 157 188 187 220 241 240 239 251 277 291 294 288 311 295 248 250 249 274 281 293 305 304 300 300 296 294 293 292 292 290 285 279 280 279
182 167 167 162 161 161 147 139 138 159 189 208 239 235 252 249 247 260 266 307 311 296 289 272 281 236 288 335 319 312 300 298 297 296 297 296 291 289 287 285 285 285 283
163 162 159 154 155 152 146 144 161 171 203 208 228 233 235 236 237 250 279 281 287 306 301 12 318 45 328 322 305 303 301 296 294 291 289 288 288 286 281 278 280 279 274
150 153 153 150 155 160 146 147 164 170 198 199 223 222 228 222 254 265 275 276 267 273 285 301 290 307 311 307 304 302 297 293 292 290 287 286 285 284 280 278 275 274 273
157 157 157 158 162 161 147 154 169 176 212 223 227 237 264 288 290 277 262 257 257 256 268 288 287 295 290 296 299 293 286 284 282 282 281 282 283 283 281 279 275 271 271
161 162 162 162 166 164 158 156 162 185 198 224 253 266 271 289 274 261 254 256 250 255 263 277 291 295 290 296 290 287 285 279 279 279 282 280 278 276 275 274 270 265 262
160 161 162 166 166 155 146 150 164 183 205 226 247 261 276 272 267 261 252 256 256 252 254 266 283 285 290 290 289 279 280 280 275 277 278 280 280 277 282 280 274 264 262
163 166 162 153 154 152 148 169 185 194 212 231 242 250 260 260 264 269 268 264 261 258 255 258 268 281 279 285 280 287 283 274 279 276 278 279 281 281 280 277 281 280 263
163 162 151 151 151 151 166 177 186 198 209 234 247 252 260 262 269 271 271 270 268 265 262 263 266 272 280 283 278 286 282 289 276 277 279 277 272 270 272 292 283 298 259
159 159 165 159 164 178 190 190 181 196 218 234 255 265 265 266 265 274 279 283 281 281 274 273 278 276 278 277 278 278 281 282 284 263 280 274 281 281 280 278 284 285 292
156 166 164 165 173 181 191 194 205 202 221 237 252 269 273 271 269 271 276 283 287 282 278 281 281 278 284 283 281 278 273 274 275 278 272 279 277 275 276 277 278 279 273
164 170 170 172 172 180 188 199 206 210 228 243 255 263 266 274 274 291 288 283 279 279 278 271 269 276 273 277 268 266 267 266 269 266 251 268 266 266 270 270 272 272 270
165 170 166 167 169 170 187 190 197 209 229 248 256 262 266 278 291 294 293 296 297 292 287 292 290 287 286 288 288 285 276 266 266 264 240 247 255 265 263 270 269 268 269
161 162 157 164 171 168 186 197 199 194 209 235 252 264 270 283 295 296 300 302 302 304 297 297 307 306 295 285 286 273 274 268 271 276 257 273 274 268 278 267 273 246 247